Theta_e
297 298 299 300 299 297 297 297 298 300 301 301 302 302 299 298 293 290 290 290 291 293 294 294 292 296 298 298 299 299 298 298 298 298 297 298 299 299 302 305 307 308 308 308 308 308 308 308 308 309 308 308 309 310 310 311 311 312 311 312 313 313 312 313 314 314 314 315 316 316 316 316 317 317
291 292 292 292 291 291 291 292 293 293 295 296 298 298 298 298 294 293 290 289 291 291 292 295 296 292 295 297 297 296 298 298 298 298 299 300 299 300 301 303 305 305 306 306 306 307 306 307 307 307 307 307 308 308 308 308 309 310 312 313 313 313 312 313 314 313 314 314 315 315 315 315 315 316
288 287 288 287 288 289 290 291 289 289 290 291 292 294 296 296 297 294 292 288 290 291 290 291 293 295 295 295 296 297 296 297 298 299 299 300 298 297 298 298 301 303 304 304 305 306 306 306 306 306 306 307 307 308 307 307 307 308 309 311 312 312 312 312 311 312 312 313 314 314 314 314 315 315
286 286 287 287 287 287 287 289 289 289 288 290 291 291 293 295 296 295 293 290 289 291 290 291 292 292 293 294 293 293 295 296 295 297 297 298 296 297 298 298 299 301 302 303 304 304 305 304 305 305 304 305 305 305 305 305 306 307 307 308 309 308 308 308 309 310 311 311 312 312 312 312 313 314
284 285 287 288 287 286 287 288 288 288 289 287 288 289 291 293 292 292 291 288 287 290 291 290 290 291 291 290 291 289 291 290 291 293 294 294 295 296 296 296 296 298 299 300 301 302 302 303 303 303 303 303 303 304 304 305 306 305 305 305 305 307 307 308 309 308 308 309 310 310 310 310 311 311
285 284 285 287 287 286 286 286 286 287 287 286 286 286 287 289 288 288 290 289 288 286 289 288 289 289 289 289 290 289 288 290 291 290 291 292 293 293 294 294 295 296 298 299 300 301 302 302 302 302 302 302 303 305 305 303 303 303 303 303 303 303 304 306 306 305 306 307 308 308 308 309 309 310
284 284 284 285 284 284 284 284 285 284 284 284 284 285 285 286 287 286 288 288 286 286 286 288 288 288 288 288 288 289 289 289 290 290 290 291 292 293 293 293 294 296 297 299 299 300 301 301 301 301 301 302 302 302 302 302 302 302 302 302 302 302 302 303 304 305 305 306 306 306 306 307 308 308
283 283 283 284 284 284 284 284 284 284 283 284 284 284 284 284 285 285 284 286 287 286 285 287 287 287 287 288 289 289 289 289 289 289 290 290 290 291 291 292 292 294 296 297 298 298 299 299 300 300 300 300 300 300 300 301 301 300 300 301 301 301 301 301 302 302 302 303 304 305 305 305 306 306
283 283 283 284 284 283 283 283 283 284 284 284 284 284 284 284 284 284 284 284 285 285 285 285 287 287 287 288 288 288 287 288 288 289 288 289 289 289 290 290 291 293 295 295 296 296 297 298 298 298 298 298 299 299 299 299 299 299 299 299 299 300 300 300 300 300 300 301 301 302 303 304 304 305
283 283 283 282 283 283 282 283 283 283 283 283 283 283 284 284 284 284 284 284 284 284 284 285 284 286 286 286 286 287 286 286 286 287 288 288 289 288 288 289 290 290 291 290 291 293 294 294 295 296 297 297 297 297 297 298 298 297 297 298 298 299 299 299 299 300 300 300 300 301 301 302 303 303
283 282 283 283 283 283 283 283 283 283 283 283 283 283 283 284 283 283 283 283 283 283 283 284 284 284 285 286 284 286 287 286 286 285 285 286 287 288 287 287 288 289 289 291 293 292 292 293 293 294 295 296 296 296 296 297 297 296 296 297 298 298 298 299 299 299 299 299 299 299 299 299 301 302
281 282 281 281 282 282 282 282 282 283 282 283 282 282 282 282 282 282 282 282 283 282 282 283 283 283 284 284 285 286 286 284 285 286 285 284 285 286 287 288 287 288 289 288 289 291 291 291 292 294 294 295 295 295 295 295 295 294 296 296 297 297 297 298 298 298 298 298 298 298 298 298 299 300
281 281 281 281 281 283 284 285 285 286 286 284 282 282 282 282 282 282 282 282 282 282 282 282 283 283 283 283 283 283 283 283 283 285 285 285 286 286 286 287 288 288 287 287 288 288 288 288 288 289 289 290 291 291 292 292 292 293 295 295 296 297 297 298 297 297 297 297 297 297 297 297 298 298
281 281 280 281 283 284 284 284 285 286 287 287 285 283 283 282 282 282 282 283 283 283 282 282 282 281 282 283 283 283 284 285 285 284 285 283 284 285 284 286 287 287 286 286 285 287 289 288 288 288 288 288 289 288 289 289 290 292 294 294 295 296 296 297 297 297 296 296 296 296 296 297 297 297
279 279 280 280 281 281 282 281 284 285 285 285 285 286 286 286 285 283 282 282 283 282 281 282 282 281 281 282 283 283 283 283 283 283 283 283 283 282 281 279 283 288 288 286 285 285 288 288 286 287 287 288 288 289 289 291 292 293 294 295 295 296 296 296 296 296 296 295 295 295 296 296 296 296
278 278 279 279 280 280 280 281 281 282 284 284 285 285 285 285 285 285 283 281 281 281 280 280 281 281 281 282 282 282 282 282 283 283 283 283 283 282 281 282 281 285 286 284 282 282 285 286 285 285 286 287 287 288 290 292 293 293 293 294 295 295 295 296 296 295 295 295 295 295 295 295 296 297
277 277 278 278 280 280 281 280 280 280 281 283 284 284 284 284 285 285 285 285 283 283 281 281 281 281 281 281 282 283 283 284 282 283 282 283 283 282 281 281 282 283 285 283 281 281 283 285 284 283 285 286 287 288 291 292 293 293 293 294 295 295 295 295 295 295 295 295 295 295 295 295 297 298
277 277 277 278 278 278 278 279 280 280 281 282 282 283 283 283 283 284 285 284 284 284 283 282 281 282 283 282 283 283 284 282 281 281 281 282 282 282 281 282 283 284 285 282 282 280 283 284 283 283 284 286 287 288 290 292 293 293 293 295 295 295 295 295 294 294 294 294 294 294 295 295 295 296
276 277 278 277 277 278 278 279 281 281 282 282 282 282 282 282 282 282 282 282 283 283 283 282 282 282 283 283 283 284 284 284 283 284 283 283 283 283 284 283 284 284 285 284 282 278 282 284 283 283 284 285 286 288 290 292 293 293 294 294 294 294 295 294 294 294 294 294 294 294 295 295 294 293
277 277 277 277 278 278 278 280 283 284 283 282 282 281 281 281 282 282 284 285 285 284 283 283 283 283 284 286 285 285 285 284 284 285 285 284 283 282 280 280 282 282 284 285 282 280 281 284 282 283 285 286 285 287 286 289 292 293 293 294 294 294 293 293 293 294 293 294 294 294 295 294 293 292
277 277 278 279 279 279 278 281 284 284 284 282 281 281 281 281 281 281 282 284 285 285 286 286 287 287 287 287 287 287 287 286 285 283 282 281 282 280 278 279 280 280 282 283 283 282 280 283 283 283 284 285 285 285 285 285 289 291 292 293 293 293 293 293 293 293 293 293 293 293 294 293 293 291
279 280 281 280 279 278 279 283 284 285 283 281 281 281 281 280 280 280 281 281 283 285 286 286 285 285 285 286 286 286 286 286 285 283 279 281 281 279 279 278 280 281 283 283 285 282 281 283 284 283 284 285 284 284 285 285 286 289 289 290 291 291 292 292 292 293 293 293 293 293 293 293 290 287
279 280 280 280 280 280 281 283 284 285 283 282 281 281 280 279 279 280 281 281 282 282 281 280 281 281 282 282 282 283 285 285 284 283 283 283 281 279 279 280 280 279 281 284 284 281 282 283 284 283 282 281 283 276 278 281 283 283 284 284 285 288 289 290 290 291 292 292 292 293 293 290 288 286
278 279 278 279 281 282 283 284 284 284 284 282 282 281 279 279 278 281 282 282 281 280 279 279 281 281 281 281 281 282 282 283 283 283 283 283 282 281 280 280 280 278 280 284 286 282 283 284 282 285 283 279 278 277 275 276 279 281 280 283 283 286 287 287 287 289 290 291 292 293 291 289 287 285
277 277 278 278 280 282 283 284 284 284 284 284 282 280 279 280 282 283 280 280 280 279 280 280 280 280 280 280 280 281 281 282 283 283 283 283 283 282 280 280 280 280 282 284 287 284 282 283 282 283 283 282 281 281 278 275 278 279 282 283 283 284 284 284 285 286 289 291 292 291 289 289 288 285
277 277 278 278 280 282 283 283 283 284 283 283 280 279 282 283 282 280 280 279 279 279 278 278 278 278 279 279 279 280 280 281 281 282 282 283 283 283 283 282 280 279 281 285 287 284 283 282 282 282 282 281 281 280 278 278 275 274 279 282 284 284 285 285 285 286 287 288 288 288 287 288 287 287
277 278 278 279 281 282 282 283 283 282 282 280 279 281 282 281 281 279 277 278 277 277 277 277 277 278 278 278 278 278 279 280 281 281 282 282 282 283 284 285 285 283 284 285 285 285 284 282 284 282 281 282 280 279 275 276 276 276 277 276 278 280 283 285 284 285 285 285 286 288 288 288 287 286
278 278 278 280 282 282 282 281 281 280 279 278 280 280 280 279 278 276 276 276 276 276 276 276 276 276 277 277 277 278 279 280 280 281 282 282 283 283 283 284 284 284 285 285 285 285 284 283 283 283 283 281 280 279 277 275 274 276 275 276 276 276 279 283 282 283 284 284 283 282 282 281 281 281
278 279 281 281 281 281 280 279 278 277 277 278 278 278 278 276 275 275 275 275 275 275 275 275 275 275 276 277 278 279 280 281 281 281 281 282 282 282 283 283 284 284 284 285 284 283 281 280 280 281 281 281 280 280 279 275 275 274 275 276 273 274 276 280 281 280 280 279 279 279 278 278 278 279
280 280 280 280 279 277 276 275 274 273 274 276 276 276 275 274 274 274 274 274 274 273 273 273 273 274 276 277 278 280 280 279 278 279 279 279 280 281 281 281 282 283 284 278 277 277 277 278 279 279 279 280 280 279 278 275 273 273 274 272 272 275 275 277 278 278 277 276 276 275 276 277 277 277
278 278 277 276 276 275 276 275 275 274 274 272 271 272 272 273 273 274 274 274 272 272 272 272 273 274 276 278 278 277 277 277 278 279 279 279 279 280 281 280 279 280 282 274 274 275 275 275 276 278 278 279 278 275 275 275 273 271 271 272 273 272 272 274 274 274 274 274 273 274 274 274 274 275
276 274 274 273 272 272 271 271 270 269 269 270 270 270 271 271 272 273 274 273 272 272 272 272 273 274 276 276 276 276 276 277 278 279 278 279 279 280 280 278 278 279 279 279 274 273 274 274 274 275 274 274 274 274 274 273 272 270 269 271 271 271 272 271 272 272 273 272 271 270 271 271 271 272
272 270 270 270 270 269 269 268 267 267 267 267 268 268 269 269 270 270 270 269 269 269 270 270 271 273 275 274 275 275 276 276 277 278 278 279 279 279 279 278 277 277 276 275 273 272 273 273 274 273 273 272 272 273 272 269 269 270 270 270 270 269 270 271 271 271 271 269 268 268 267 269 270 271
267 268 268 268 268 267 266 265 265 265 265 266 266 266 268 268 268 268 268 268 268 268 269 269 271 273 273 273 274 274 274 275 276 278 278 277 278 277 277 276 276 276 273 272 271 271 272 273 273 274 273 273 273 272 272 270 268 269 269 269 268 267 268 269 269 270 270 269 267 266 266 266 268 270
266 267 266 266 266 266 265 265 265 265 265 265 265 265 266 266 267 267 266 267 267 267 268 269 270 271 272 272 272 272 272 273 275 276 277 278 277 276 275 274 273 272 271 270 270 271 272 272 272 272 272 272 271 270 274 272 269 268 268 268 268 267 267 268 268 269 269 269 268 266 265 265 266 268
264 265 264 263 263 264 264 264 264 264 264 264 264 264 264 265 265 265 265 267 267 267 267 268 269 270 271 271 271 272 272 273 273 275 275 276 275 274 274 273 271 270 270 269 269 271 272 272 272 271 269 269 267 265 265 272 273 269 267 266 267 266 267 267 268 268 268 267 267 266 264 264 265 267
261 263 263 262 262 263 263 263 263 263 263 263 263 264 264 263 264 265 265 266 266 267 267 268 268 269 270 270 271 271 272 272 272 274 274 274 273 272 271 271 270 269 269 269 270 271 272 271 272 271 269 267 264 262 263 267 271 273 268 266 266 267 267 267 266 266 266 267 266 266 265 264 265 266
261 263 262 262 262 262 263 263 263 262 262 262 263 263 263 263 264 264 265 265 265 266 267 267 268 268 269 270 270 270 271 272 273 273 273 272 271 270 269 268 268 268 268 269 269 268 269 270 270 270 270 266 263 263 263 265 265 268 272 269 266 266 267 267 265 264 264 266 265 266 266 265 265 266
262 262 262 261 261 262 262 262 262 261 261 261 262 262 262 263 263 263 264 265 266 266 266 266 267 268 268 268 270 270 270 270 271 271 272 271 270 269 268 268 267 268 267 266 266 266 266 266 267 267 268 267 265 264 264 263 264 267 271 272 269 267 267 266 264 264 264 264 264 265 266 267 269 273
261 261 261 260 260 261 261 261 261 260 260 261 261 261 262 263 263 263 263 264 265 265 265 266 267 267 267 268 269 270 270 270 270 270 270 270 269 269 268 268 267 266 264 263 263 264 265 265 265 266 265 265 266 266 266 266 267 268 269 271 272 269 266 266 265 264 264 265 265 265 264 265 264 265
260 259 258 259 259 260 260 260 260 260 260 260 260 262 262 263 263 263 264 264 264 264 265 265 265 265 266 267 269 269 269 269 270 270 270 269 268 267 266 266 264 264 263 262 263 263 264 265 267 269 267 267 267 268 266 264 262 264 265 268 272 272 271 269 266 265 264 265 265 264 263 262 262 263
258 257 257 257 258 259 259 259 259 259 259 260 260 261 262 263 263 264 264 264 263 264 264 264 265 265 266 267 268 269 269 269 269 269 268 267 265 264 264 264 262 263 262 262 263 264 266 268 268 268 268 268 266 264 262 262 262 262 264 266 268 272 272 272 271 270 267 265 264 262 262 262 263 262
258 256 257 258 258 258 258 258 258 259 259 260 260 261 262 262 263 262 262 262 263 263 263 264 264 264 265 267 268 269 268 268 269 268 267 266 265 264 263 263 263 263 263 263 264 265 265 266 266 266 265 265 264 264 261 262 262 263 263 264 266 268 269 272 273 272 272 271 269 266 263 262 261 259
256 257 257 258 257 257 257 257 258 259 259 260 260 261 262 262 262 262 262 262 262 262 263 263 263 264 265 266 268 268 268 268 268 267 266 265 265 264 263 263 263 263 263 263 263 263 264 264 265 265 263 263 263 262 262 262 261 262 262 263 264 264 263 265 266 270 272 273 273 271 270 269 268 268
255 255 256 257 257 257 257 258 258 259 259 259 260 261 262 262 262 262 262 262 262 262 262 262 263 263 265 266 267 266 267 268 268 267 266 265 264 264 264 264 263 262 262 262 262 262 263 263 263 264 263 262 262 262 262 262 261 261 261 261 261 262 262 262 262 262 262 262 270 273 272 272 271 271
Wind_Speed
3 3 3 2 2 3 2 2 3 3 3 3 4 4 6 8 10 10 12 19 8 7 3 4 5 8 8 7 7 8 8 10 12 9 8 9 11 15 20 23 24 26 27 27 30 31 31 33 34 32 33 35 35 35 32 31 30 30 33 34 36 37 37 34 32 32 32 30 28 29 26 23 23 25
2 2 2 2 3 3 3 3 3 2 3 3 3 3 3 4 8 7 10 17 13 8 9 6 6 3 5 6 7 6 8 12 13 10 12 12 13 20 22 24 24 23 26 27 27 29 29 30 32 31 30 31 36 37 37 37 36 37 35 36 36 35 37 34 33 34 30 30 30 27 28 24 25 24
3 3 3 2 3 4 5 4 4 3 3 3 3 4 3 4 5 9 9 14 14 4 11 11 3 8 12 7 8 9 6 9 13 11 12 13 17 22 19 22 24 24 25 28 27 29 31 33 34 33 29 34 34 36 38 38 37 38 38 35 34 34 34 33 30 30 30 29 29 28 27 27 26 27
3 3 4 4 4 4 4 5 4 4 4 4 4 4 4 4 5 7 10 13 20 17 11 14 15 6 11 13 8 9 10 8 14 11 11 13 17 14 13 18 22 24 27 27 28 29 30 31 33 34 36 36 38 39 37 39 38 38 38 37 35 36 35 33 33 32 30 29 27 27 28 27 25 26
4 5 5 5 5 4 5 5 5 5 5 4 4 4 4 5 4 6 9 12 17 20 13 8 12 12 9 14 8 8 10 9 8 11 10 10 12 13 12 13 19 21 24 25 25 27 29 31 31 32 32 33 36 36 37 37 37 36 35 35 36 35 34 33 30 33 32 32 29 28 29 28 27 27
4 4 4 5 5 4 4 5 5 5 5 4 5 4 5 6 5 4 6 10 13 20 20 17 10 11 5 14 10 9 10 13 12 12 11 10 11 12 12 13 13 20 21 24 24 26 30 32 34 33 30 34 35 35 35 37 31 34 35 33 32 31 36 33 33 34 31 32 31 30 30 31 29 29
3 3 4 4 4 4 4 4 5 4 4 4 4 6 4 6 6 4 5 9 14 17 20 19 17 13 10 10 14 11 9 10 11 15 13 11 11 11 11 12 13 18 21 23 25 28 29 33 34 35 34 35 35 35 36 36 33 33 33 33 31 32 33 33 30 30 29 30 31 31 31 29 29 29
3 3 4 5 4 5 5 6 7 5 4 5 5 6 6 5 7 6 5 7 10 13 17 21 17 15 14 14 10 10 10 11 12 11 14 12 12 13 12 12 13 16 24 23 24 25 26 28 28 31 33 34 34 36 36 36 37 33 30 28 31 32 28 30 30 28 28 28 29 30 30 29 29 29
2 3 4 5 5 5 6 7 7 7 8 7 6 8 8 6 7 6 6 8 8 12 16 19 18 16 15 13 13 8 12 15 13 12 14 14 15 15 14 12 12 18 23 21 22 22 24 24 26 33 35 34 35 35 35 35 34 29 28 28 28 28 27 27 27 27 29 28 28 27 29 29 30 30
2 3 4 4 4 5 5 7 7 7 7 7 7 7 9 8 6 8 7 7 9 11 14 15 19 17 17 17 14 12 9 11 15 16 16 16 12 12 14 12 11 11 11 10 10 14 19 23 27 27 27 30 33 34 34 32 29 28 26 27 28 29 28 27 27 27 26 27 27 26 28 30 29 29
3 3 3 4 4 5 5 6 7 8 7 6 7 6 9 9 7 8 9 8 10 11 13 13 12 15 14 10 17 13 11 12 10 14 15 16 16 14 14 16 11 10 13 14 19 18 19 23 22 25 27 27 31 34 33 31 30 27 27 26 27 28 28 28 26 26 27 27 27 27 27 29 29 28
3 4 4 4 4 4 5 5 6 7 8 7 7 5 5 8 9 9 9 9 9 10 11 12 13 11 13 13 11 12 11 12 9 8 11 15 17 17 14 14 16 15 13 14 12 13 16 16 21 25 25 26 27 27 27 29 28 26 25 26 26 27 28 28 26 26 26 25 28 27 28 27 26 28
4 4 4 4 4 6 9 11 10 10 9 8 9 7 5 7 8 10 9 10 9 10 10 13 10 12 13 12 13 14 12 11 13 15 11 13 12 13 15 16 16 14 15 14 12 12 13 15 14 11 10 11 16 17 23 23 26 24 24 25 26 27 27 27 27 25 27 27 28 29 27 28 29 28
4 4 4 5 8 10 11 10 10 10 12 12 9 9 9 9 10 10 11 10 9 10 11 11 12 14 13 14 13 13 13 13 13 15 13 16 15 14 15 14 11 11 14 15 16 10 10 12 13 12 13 12 14 11 13 14 16 19 24 26 27 28 28 27 26 26 25 28 29 28 28 29 29 30
4 4 4 4 5 7 7 6 9 14 14 14 15 16 15 12 11 11 12 12 11 11 10 12 13 13 15 16 14 13 15 11 13 13 13 15 14 14 18 20 17 9 12 12 15 14 12 14 16 16 14 15 14 13 13 22 23 23 23 25 27 28 28 29 27 24 25 27 28 30 29 29 30 32
3 3 4 4 4 4 5 7 7 9 14 15 16 17 16 16 17 17 13 13 12 12 13 14 13 14 13 15 14 14 13 14 13 16 15 14 14 15 17 13 15 13 13 15 16 20 16 14 15 15 14 15 15 14 20 24 23 23 26 26 30 31 30 29 25 27 29 27 28 29 30 30 32 31
3 3 4 3 4 4 9 7 6 7 8 12 16 17 16 16 15 17 19 18 14 12 13 13 16 13 13 15 14 12 15 15 17 16 15 15 12 13 15 17 15 14 13 15 17 19 18 15 15 15 13 14 14 13 17 24 23 27 27 27 29 29 28 27 27 26 28 28 27 28 28 30 25 25
3 4 4 4 5 4 5 7 9 9 10 9 9 9 8 8 10 13 16 18 20 15 12 12 14 15 13 15 15 18 15 17 17 16 16 14 16 15 18 21 19 18 14 16 15 17 18 16 14 15 13 13 13 12 16 20 22 24 27 29 28 28 29 27 26 28 27 27 26 25 27 10 4 10
3 4 4 3 4 5 6 7 11 13 12 11 9 9 9 8 8 8 9 9 10 10 10 12 14 15 14 14 16 16 14 14 14 14 17 17 17 17 17 16 16 15 13 13 10 14 17 14 15 16 14 13 13 10 15 17 21 25 27 29 29 29 28 27 29 28 26 25 26 25 19 14 13 12
4 4 4 5 6 5 5 9 18 17 14 12 13 14 13 11 10 8 7 13 14 13 14 14 14 14 17 22 22 21 19 18 14 14 13 14 12 15 15 15 13 14 13 10 9 11 13 13 14 16 14 13 13 11 9 15 20 23 26 26 27 28 25 25 27 27 24 23 23 25 18 19 18 16
3 4 5 6 6 6 5 11 19 20 20 11 13 14 15 13 13 11 11 15 19 19 21 23 25 29 30 30 32 31 33 24 21 15 16 13 14 14 15 12 14 14 13 9 11 11 15 13 12 14 14 13 14 12 10 8 12 21 24 25 25 25 24 24 25 24 22 21 22 16 26 23 20 25
4 5 8 9 7 8 8 17 20 21 16 11 12 12 14 16 15 15 13 12 13 17 18 21 22 23 26 27 29 30 30 30 22 15 15 16 16 15 15 17 14 13 13 12 11 11 12 12 11 13 14 12 9 10 9 10 10 15 15 19 21 22 21 23 22 22 20 20 15 20 21 25 26 16
5 6 6 13 13 12 15 22 21 23 18 11 11 11 12 13 14 13 13 15 17 16 17 17 16 16 17 14 12 14 24 28 21 15 15 14 16 17 16 17 16 13 12 7 5 10 12 12 13 12 13 11 9 1 5 5 6 6 5 7 8 13 17 19 20 19 20 16 15 23 22 25 19 12
5 6 7 10 17 21 21 22 23 22 23 14 11 10 10 12 14 12 14 16 15 15 16 16 14 15 13 14 12 10 12 13 12 13 13 13 15 17 17 17 17 17 14 11 12 13 13 12 13 10 12 13 11 4 2 4 5 6 3 6 6 9 12 14 12 16 15 12 19 21 26 26 20 13
7 7 7 7 14 20 22 23 24 23 23 20 12 9 9 11 17 21 14 16 20 15 15 14 17 13 12 12 12 10 11 10 10 12 13 14 14 15 17 17 18 18 16 14 18 13 15 13 15 13 11 8 9 10 3 2 4 3 4 5 7 6 5 7 6 8 11 15 21 26 28 27 25 18
5 7 7 7 13 21 22 22 22 23 22 24 12 12 21 25 24 17 13 12 11 12 12 12 14 14 12 11 13 14 12 12 13 14 13 13 16 14 14 15 18 17 18 16 20 15 14 11 12 14 12 11 10 8 8 7 3 3 3 4 5 6 5 7 6 5 4 8 13 18 22 28 28 28
7 6 7 8 16 22 22 21 22 22 25 18 13 23 23 22 24 18 11 11 12 9 12 12 12 11 12 12 14 12 13 14 15 15 11 15 15 14 15 15 15 16 16 16 15 14 12 11 11 12 14 12 12 7 4 6 5 2 4 4 5 5 6 4 0 4 5 8 12 28 28 29 29 28
8 7 8 11 21 20 21 21 22 21 19 15 22 22 23 24 20 11 11 8 9 11 11 11 11 12 13 11 12 13 15 14 14 15 15 15 14 15 14 15 16 14 15 14 13 12 12 11 10 11 12 13 13 10 8 2 2 2 1 3 3 6 7 5 6 8 9 11 11 11 12 12 14 17
8 13 19 20 19 19 20 22 19 15 16 21 21 23 23 20 10 10 8 10 10 10 11 10 12 12 11 12 12 15 14 14 14 13 14 14 13 14 14 15 13 13 11 10 9 7 7 8 9 11 11 10 10 8 6 4 0 1 2 2 4 7 7 6 6 10 10 10 10 10 11 12 12 12
17 17 17 18 18 15 15 12 10 10 12 20 21 21 19 10 9 9 9 10 10 11 12 14 14 11 11 12 13 13 13 14 13 13 13 13 14 14 13 14 12 10 9 4 5 5 6 6 9 9 10 10 8 8 4 2 2 3 5 4 3 4 8 6 7 9 12 11 10 11 10 10 10 11
7 10 10 11 14 13 17 16 15 13 14 12 12 9 9 9 10 9 8 9 11 11 12 14 12 12 12 12 11 14 12 12 13 11 12 13 13 12 12 12 12 11 11 3 5 5 6 6 7 8 9 9 5 4 1 2 4 3 4 4 4 5 3 6 7 8 10 12 12 11 10 10 10 9
7 7 8 9 6 7 8 8 6 6 5 7 9 8 8 8 9 11 14 13 9 8 10 10 13 13 11 12 13 12 12 13 11 13 13 12 14 13 12 11 11 11 11 9 6 7 6 6 6 5 6 6 4 3 5 6 5 5 5 6 8 8 7 6 8 8 9 13 14 12 10 9 9 8
5 4 6 6 8 7 8 8 8 8 8 7 5 7 8 8 9 9 11 10 11 11 10 12 13 12 12 12 12 12 13 12 12 12 12 13 12 12 11 11 11 10 10 11 9 7 6 6 6 7 8 9 9 8 4 6 6 5 6 6 8 8 6 6 6 8 10 14 12 12 11 9 8 8
4 5 5 6 7 7 8 9 9 10 10 11 10 7 9 9 8 9 9 10 9 11 12 12 12 12 11 12 12 14 12 13 10 13 16 13 13 11 11 11 10 10 8 8 7 6 6 5 5 4 6 9 12 14 9 6 5 5 6 6 8 10 6 6 6 6 5 10 15 14 11 10 9 9
4 4 5 6 6 6 7 7 9 9 10 10 11 11 9 7 9 11 9 10 11 12 12 12 12 12 11 12 14 15 16 16 13 13 10 11 11 12 11 10 10 9 8 8 7 6 6 6 5 5 3 4 6 9 18 12 4 6 7 7 6 8 7 6 6 7 8 6 10 16 11 9 8 6
4 4 4 4 5 6 7 7 8 8 8 8 9 10 11 11 10 11 10 13 12 12 13 13 13 12 12 12 13 14 15 17 14 12 12 10 11 11 10 9 8 8 7 6 7 6 6 6 5 4 4 4 5 6 8 16 15 5 7 6 6 7 7 8 7 7 8 8 6 10 13 11 8 6
3 3 3 3 4 5 6 6 7 7 7 8 9 9 9 11 12 10 11 13 11 11 12 12 12 13 13 13 13 13 14 15 14 13 12 11 10 10 10 10 9 7 7 6 6 7 6 5 5 5 4 4 6 6 5 5 15 15 5 8 7 5 7 7 8 9 7 7 8 7 9 11 10 6
3 3 3 4 5 5 6 6 7 7 8 8 8 9 9 9 9 10 11 10 11 11 12 11 12 13 12 12 13 13 12 12 11 11 11 10 10 11 10 10 9 8 7 7 7 8 8 6 6 5 4 3 4 3 3 5 4 8 11 5 7 6 5 8 9 7 8 8 9 8 8 10 9 6
3 4 5 5 6 6 6 7 7 8 9 8 8 9 9 9 9 10 11 11 11 12 11 11 11 11 12 13 12 13 14 13 11 12 11 10 10 10 10 9 8 7 7 7 7 8 8 7 7 5 4 3 3 3 4 6 7 5 10 13 5 6 5 7 9 8 8 10 10 10 9 8 11 15
3 4 3 4 5 5 6 6 6 7 8 8 8 8 8 10 10 10 9 11 11 12 11 12 13 12 11 11 12 11 10 11 11 10 11 11 11 10 9 8 7 7 6 7 8 8 8 8 7 6 3 6 7 7 8 8 6 7 8 12 17 9 5 5 8 10 10 7 8 11 10 7 6 3
2 3 3 3 4 5 5 6 6 7 7 8 8 9 9 9 9 9 10 12 12 12 12 11 11 12 11 10 11 12 13 12 10 11 11 11 10 10 10 10 7 7 6 7 7 9 11 7 8 10 6 7 6 6 6 8 9 6 8 8 15 16 15 11 6 5 9 7 8 10 9 8 7 6
1 2 3 3 4 5 5 5 6 6 7 7 7 8 9 9 8 14 13 13 12 11 11 11 12 12 11 11 11 12 12 12 11 11 10 9 9 8 9 7 7 7 7 7 7 7 7 7 7 5 5 4 3 7 8 8 8 6 6 6 8 15 20 20 19 15 8 6 7 9 7 6 5 6
1 1 3 4 3 4 4 5 6 6 7 7 7 8 8 9 8 9 9 10 11 11 11 12 11 10 10 10 10 10 10 11 10 10 9 8 7 7 7 7 6 6 6 5 5 6 7 7 6 6 6 7 5 6 8 7 6 7 7 8 7 7 10 16 18 18 15 14 10 5 2 4 7 6
1 2 3 3 4 4 4 5 6 6 6 7 7 7 7 8 9 9 9 9 10 10 11 11 12 11 10 10 10 10 9 9 9 9 8 7 7 6 6 6 6 6 6 6 6 6 6 7 7 6 8 7 5 8 8 8 7 6 7 7 6 9 8 8 9 13 16 17 15 11 9 5 3 5
2 2 3 3 4 4 4 5 5 6 6 6 6 7 7 7 8 8 9 9 9 11 11 11 11 12 11 10 10 10 10 11 10 8 7 6 6 6 6 6 6 6 6 6 5 5 6 6 6 7 8 7 6 7 6 7 7 7 7 8 8 7 7 6 9 10 9 10 14 16 13 14 17 20
Wind_Direction
30 32 23 10 333 322 335 330 328 323 315 312 303 302 305 308 303 312 308 306 310 300 207 266 271 212 251 256 254 271 268 273 278 278 273 277 283 282 281 283 283 282 282 282 283 283 281 279 279 277 278 278 278 278 277 276 275 276 280 281 282 282 282 282 281 281 281 282 282 280 278 278 270 259
40 32 11 5 326 291 318 292 286 295 294 298 294 295 293 307 290 287 297 297 299 301 295 197 270 282 250 277 283 260 274 274 272 278 281 285 286 288 286 287 287 285 285 285 284 283 281 280 279 279 278 279 280 280 280 280 279 279 280 281 282 283 283 281 280 280 280 281 282 283 282 282 281 275
44 10 350 329 325 310 316 314 310 298 290 277 273 270 273 269 263 282 284 295 289 301 298 299 246 292 295 276 279 286 264 275 277 278 281 282 282 285 288 287 288 287 286 287 286 285 285 284 284 284 282 283 283 282 283 282 282 282 282 282 282 283 284 283 284 284 282 282 282 283 283 280 277 275
25 11 350 333 325 316 324 315 312 308 296 285 282 274 269 264 265 282 285 277 284 296 295 295 298 284 292 298 293 286 286 277 279 280 281 282 283 284 283 284 283 285 288 288 289 289 288 287 286 285 285 284 284 284 283 283 283 283 283 283 284 284 284 286 284 283 282 281 280 281 281 279 277 276
23 3 349 329 324 328 323 308 312 310 301 301 285 277 273 268 252 256 274 279 288 294 290 281 293 307 313 298 300 293 294 292 284 283 281 282 282 283 283 282 281 281 282 284 285 287 288 288 287 286 285 285 285 284 284 283 283 283 283 283 283 283 284 283 285 284 285 284 284 282 281 280 279 278
5 358 334 313 314 319 303 300 300 296 303 299 296 285 272 275 271 238 270 280 286 291 302 302 297 293 293 288 302 303 300 301 299 287 284 282 278 279 280 283 281 278 280 282 281 281 283 285 287 287 287 287 286 286 286 286 285 285 284 283 282 283 284 284 284 282 284 282 283 283 281 278 276 276
331 336 314 299 302 314 318 301 292 297 294 291 286 287 280 279 278 264 244 275 286 291 293 296 301 302 303 291 302 307 298 285 286 293 293 288 287 281 279 281 283 282 282 281 281 282 281 283 284 285 285 286 286 285 285 285 284 284 283 282 283 284 282 281 281 280 280 280 280 280 280 279 277 274
333 320 326 317 328 333 331 321 321 316 309 310 307 296 291 281 284 275 260 249 269 284 291 296 299 302 307 302 299 302 295 291 293 291 295 292 286 287 284 279 282 283 285 282 281 280 280 280 281 282 283 283 283 284 284 283 283 285 283 282 283 280 278 278 278 276 278 279 279 279 279 278 276 274
321 328 325 315 328 335 327 318 323 319 320 316 313 304 300 295 283 278 265 262 260 274 280 289 294 300 297 295 300 309 311 307 302 298 294 294 294 293 289 285 280 280 284 281 280 280 280 278 279 284 285 284 284 283 282 281 283 282 281 282 282 281 279 277 275 276 276 274 273 272 275 274 273 273
327 324 315 312 317 321 318 309 308 309 307 309 304 298 294 291 285 284 279 267 267 269 275 281 294 299 302 307 301 310 303 300 305 306 301 297 290 290 295 289 290 288 288 291 278 276 282 281 278 276 277 279 280 281 281 281 281 280 279 278 278 279 278 277 278 275 271 268 268 269 269 271 269 269
327 315 306 307 309 308 301 300 300 302 300 294 291 289 292 292 293 291 289 286 282 279 281 283 278 291 292 293 303 311 307 296 292 297 303 302 308 303 296 296 288 288 290 280 280 279 276 276 277 276 274 274 276 278 279 278 275 274 274 274 274 276 279 278 275 271 270 270 268 266 267 267 267 264
323 314 309 304 301 294 290 288 290 293 297 299 297 289 285 296 303 301 298 294 289 288 285 282 294 290 294 300 291 295 303 301 284 287 298 299 302 301 299 298 307 300 289 289 283 280 278 272 270 273 274 273 272 273 276 276 275 274 273 274 276 276 274 274 270 269 270 269 270 268 267 266 264 264
325 314 304 298 292 287 286 288 289 292 296 306 311 314 312 308 305 303 303 299 296 289 287 290 287 292 295 296 301 307 309 309 308 308 297 289 293 302 303 299 294 293 297 293 277 277 278 278 276 269 268 269 274 276 275 275 275 276 276 277 275 273 270 271 271 267 270 271 269 269 269 267 266 264
312 302 297 294 292 295 296 297 299 304 312 312 311 313 321 317 312 306 304 302 299 300 300 301 308 305 300 301 303 302 303 305 306 306 309 307 307 300 291 289 290 301 296 295 296 289 285 287 287 287 284 281 276 273 270 269 271 274 272 272 269 267 265 265 266 269 270 271 270 268 268 268 267 266
307 303 300 296 298 299 304 306 308 322 322 321 317 317 314 314 316 318 316 313 314 311 302 301 298 293 296 298 302 299 304 305 306 305 305 298 299 304 308 307 302 294 310 305 299 299 295 290 287 285 282 279 277 271 262 268 266 263 265 263 261 260 260 265 269 265 269 271 272 273 272 272 271 268
296 301 305 302 300 302 308 317 317 319 323 323 322 320 321 319 318 312 307 307 308 307 304 298 292 294 292 298 300 304 308 310 304 299 298 296 296 298 299 295 297 306 308 303 303 298 298 288 282 282 282 281 277 269 270 267 263 263 262 259 263 266 267 270 269 271 273 271 272 275 275 275 273 266
307 310 310 312 311 314 322 322 318 314 315 317 317 313 310 307 302 306 306 301 297 296 288 290 292 293 301 299 298 301 301 298 294 300 298 297 294 294 293 293 291 295 300 298 294 294 297 295 290 286 283 282 281 276 271 269 264 262 262 260 259 263 266 268 272 272 274 273 273 275 277 273 259 241
323 319 324 324 329 329 332 325 322 320 314 311 307 305 299 294 291 292 297 298 295 285 282 284 289 292 293 289 291 294 295 297 296 298 294 296 296 296 292 292 289 288 291 286 290 290 291 293 294 292 290 284 283 277 268 260 258 264 260 258 262 262 266 270 271 272 272 275 276 275 275 226 133 143
316 318 315 323 323 331 331 321 328 326 322 321 315 306 302 290 285 287 288 288 292 291 286 282 280 284 286 285 287 290 291 285 285 289 291 290 288 287 286 283 282 284 276 273 278 284 287 292 294 290 291 289 285 277 279 261 249 250 259 263 262 264 266 272 273 273 274 274 277 278 245 160 133 122
323 326 328 329 327 323 322 320 331 332 330 324 320 316 312 309 302 288 282 288 289 287 287 284 282 284 290 294 299 301 300 300 298 291 284 281 282 288 288 286 290 285 284 279 276 274 281 288 288 289 289 288 284 277 262 263 253 252 253 257 261 268 272 271 272 275 277 279 277 276 191 155 150 146
329 324 326 320 319 322 315 328 335 335 334 322 318 316 312 310 309 306 306 305 298 288 283 284 292 298 300 302 302 303 304 304 304 297 290 287 293 289 288 285 288 285 286 285 276 279 284 287 285 288 288 286 285 283 270 249 245 253 259 263 266 269 271 272 274 280 281 279 282 235 163 153 150 135
322 310 318 326 327 327 323 333 336 335 333 321 316 312 312 312 314 312 312 310 306 299 298 298 297 296 298 300 302 303 303 302 299 294 294 293 294 287 286 291 289 286 283 284 285 284 278 287 287 288 290 287 274 269 267 260 258 262 265 266 267 273 275 278 281 282 280 281 267 193 164 152 135 126
323 328 331 336 334 332 331 334 335 335 333 322 317 314 310 312 307 306 310 312 317 321 320 316 313 307 303 298 292 289 295 303 301 292 291 296 295 295 293 293 295 288 280 284 295 288 290 293 290 296 297 294 285 224 293 301 293 276 268 280 282 278 281 282 286 286 288 290 218 186 164 137 122 118
337 335 332 332 335 335 335 334 332 331 330 325 317 317 315 307 304 309 314 318 319 316 311 305 305 305 306 303 297 291 296 296 290 295 296 298 299 295 296 293 294 289 291 297 301 292 289 288 293 297 291 297 300 307 314 294 271 285 296 283 280 282 288 292 289 287 276 261 197 178 144 131 127 119
337 332 329 318 330 333 332 331 331 329 329 329 327 321 305 306 314 320 319 318 317 307 307 309 310 308 305 304 306 301 305 306 303 301 297 294 295 297 295 294 292 291 288 287 293 294 292 295 294 295 290 276 283 292 290 290 285 288 294 281 286 288 289 286 277 274 262 215 195 151 137 132 127 122
326 327 321 318 325 330 330 331 331 331 331 333 331 319 321 322 322 322 319 313 313 312 311 309 307 309 311 311 317 318 313 313 309 305 301 298 296 289 286 288 291 289 291 292 294 292 289 287 289 291 292 290 281 270 287 284 269 294 306 312 302 297 283 286 282 274 183 146 137 134 131 128 123 118
325 317 317 309 323 330 332 333 335 336 336 334 326 327 327 328 330 329 319 316 311 305 306 304 303 307 312 316 316 313 313 311 310 307 300 297 296 292 290 286 283 284 288 289 287 285 282 281 283 288 293 292 288 282 258 274 295 332 335 358 340 342 321 286 14 42 72 102 125 131 126 122 121 119
321 318 318 323 329 333 335 339 340 339 337 332 332 335 336 337 334 324 320 309 308 306 303 304 307 310 312 310 309 310 310 308 308 304 303 303 300 298 296 293 287 283 281 284 288 283 281 286 294 296 295 294 292 284 276 277 308 324 315 316 5 1 351 353 92 82 94 107 106 106 105 105 105 107
319 323 326 329 334 339 343 343 342 339 337 340 342 340 339 337 324 324 315 313 309 309 313 311 310 305 308 305 298 299 299 302 305 300 301 301 298 299 297 293 289 286 288 289 295 314 316 310 300 297 295 289 283 277 264 274 299 348 326 347 5 354 3 355 86 99 96 91 96 99 102 110 109 111
327 328 332 336 343 351 349 345 345 342 342 342 343 342 339 330 327 320 315 313 324 321 318 314 308 304 300 302 304 304 310 308 306 307 309 311 311 311 310 312 308 302 303 340 5 345 329 306 296 291 288 284 272 273 263 182 39 30 12 58 145 57 21 24 61 93 99 93 88 84 79 82 98 106
326 338 345 350 349 350 349 349 344 343 342 341 339 337 335 330 324 315 322 332 328 319 314 312 305 304 302 300 310 318 314 308 311 312 307 307 309 309 309 313 313 316 320 12 23 2 334 313 302 294 292 292 307 349 15 84 101 66 36 13 357 80 5 42 54 74 89 93 85 77 76 79 76 71
354 355 355 351 354 348 349 344 337 337 344 337 330 330 329 327 323 327 332 328 314 305 304 296 299 298 304 317 318 312 314 313 311 315 313 313 314 316 316 314 317 317 317 328 360 354 349 343 333 349 10 357 358 8 44 51 68 73 72 56 73 65 54 66 85 74 84 96 86 74 70 70 79 79
4 356 355 354 355 355 345 340 337 335 337 337 334 328 327 327 329 336 342 333 329 324 320 317 311 312 320 317 313 311 313 318 317 314 314 317 315 318 321 319 318 322 329 328 336 343 351 350 16 40 46 42 30 19 33 80 38 46 79 72 81 69 58 50 61 99 104 85 82 84 74 58 58 84
16 2 5 355 353 348 346 343 341 339 338 334 336 338 338 332 329 338 334 329 324 324 324 315 316 323 321 314 320 321 317 314 315 323 324 320 323 323 328 325 325 331 333 325 329 336 336 340 335 15 58 59 54 40 25 59 80 59 63 70 82 83 50 56 48 39 45 107 114 95 84 71 65 53
14 10 360 351 351 347 343 339 337 334 332 331 330 330 333 334 336 335 331 331 328 327 327 323 323 320 317 324 329 330 328 326 322 319 318 322 327 330 329 328 330 333 335 333 334 333 334 332 334 326 352 17 43 45 39 33 53 73 79 61 59 83 70 50 68 65 81 75 97 106 95 85 80 54
7 8 357 343 345 343 343 336 330 327 325 326 327 328 331 335 338 337 333 332 330 326 327 325 326 326 328 328 326 325 326 327 321 317 322 331 331 332 331 332 330 328 332 333 329 328 330 333 341 346 356 22 38 34 7 26 40 359 86 84 61 79 80 77 65 65 68 72 61 100 109 111 101 89
0 351 354 344 341 341 333 326 323 320 322 323 324 326 328 327 329 327 324 324 322 325 327 325 324 325 326 325 325 325 325 325 325 326 327 331 334 330 333 334 336 333 333 332 331 333 337 338 350 2 1 41 60 57 21 337 41 40 23 95 89 71 94 89 83 70 48 61 65 72 102 112 108 83
357 356 349 348 339 337 327 324 324 321 323 326 322 321 320 316 316 318 321 326 326 327 328 326 322 324 324 322 321 322 323 320 318 321 328 333 336 337 337 332 331 335 332 340 352 350 348 348 0 354 9 78 108 81 60 9 17 21 41 43 99 105 85 96 84 77 73 58 79 79 88 94 101 98
357 2 354 344 339 335 330 328 328 324 322 322 325 323 319 317 317 321 327 327 327 327 326 323 324 323 323 320 322 326 323 324 326 330 332 334 337 334 332 332 332 339 351 352 351 359 3 2 351 352 34 80 79 89 108 98 55 40 63 63 48 85 73 94 99 88 91 95 91 89 79 96 111 120
351 357 350 346 328 326 319 324 324 321 319 319 320 318 317 320 321 321 321 325 327 326 323 321 322 324 322 321 320 317 315 319 323 326 330 334 334 334 336 334 341 348 350 2 2 359 7 359 350 336 40 84 95 99 102 94 88 61 56 58 58 59 69 89 97 108 99 101 114 106 104 101 79 40
347 352 334 326 315 316 321 319 320 316 314 314 313 318 318 315 318 319 323 324 325 322 322 322 322 323 320 316 324 328 327 327 326 329 333 336 338 341 346 349 354 353 354 7 3 7 1 341 10 39 52 88 105 113 82 69 59 57 58 56 69 73 71 66 71 89 109 121 110 102 104 109 116 108
342 324 308 301 305 309 313 313 313 313 311 315 316 316 318 319 318 324 323 321 320 321 321 323 325 325 320 319 322 328 327 328 329 332 336 340 337 339 347 353 353 348 357 3 356 346 340 350 347 357 345 358 8 74 80 94 93 76 52 60 63 76 81 84 82 80 81 92 116 116 101 86 81 99
343 305 305 301 304 303 310 308 308 308 310 313 313 315 316 318 319 324 326 324 324 325 325 323 323 319 315 316 320 325 326 326 330 333 335 337 338 340 340 341 346 344 350 348 356 358 4 6 15 25 35 44 43 81 92 82 84 87 86 83 81 82 84 89 93 95 92 86 79 89 89 137 135 159
321 305 297 294 302 302 305 304 305 308 308 308 307 310 314 318 321 323 323 322 323 324 323 321 319 319 317 318 320 322 328 328 331 333 333 334 336 334 336 335 340 349 353 360 1 11 10 23 23 35 58 51 51 82 88 90 81 75 80 77 74 74 66 40 46 59 65 67 74 91 118 150 218 150
288 276 277 288 291 297 290 298 301 305 305 303 306 308 313 314 316 320 321 322 322 323 323 322 321 320 319 319 323 329 330 331 330 328 328 327 329 333 336 341 348 353 5 356 6 15 18 31 31 42 59 52 44 64 65 73 84 86 81 79 69 64 56 53 63 61 46 8 38 66 82 97 104 108